Weather History for Sigonella, Italy

Change the Weather History Date:

Sunday, February 3, 2013

  Actual Average Record
Temperature  
Mean Temperature 50 °F -  
Max Temperature 57 °F 61 °F 64 °F (2000)
Min Temperature 44 °F 42 °F 28 °F (1999)
Degree Days  
Heating Degree Days 14    
Moisture  
Dew Point 43 °F    
Average Humidity 76    
Maximum Humidity 94    
Minimum Humidity 45    
Precipitation  
Precipitation 0.00 in 0.06 in - ()
Sea Level Pressure  
Sea Level Pressure 29.76 in    
Wind  
Wind Speed 10 mph ()    
Max Wind Speed 25 mph    
Max Gust Speed -    
Visibility 6.5 miles    
Events Rain    
Averages and records for this station are not official NWS values.
T = Trace of Precipitation, MM = Missing Value Source: Averaged Metar Reports

Daily Weather History Graph

Daily Weather History Graph

Search for Another Location

Airport:

Trip Planner

Search our weather history database for the weather conditions in past years. The results will help you decide how hot, cold, wet, or windy it might be!

Date:

Astronomy

Feb. 03, 2013 Rise Set
Actual Time 7:01 AM CET 5:26 PM CET
Civil Twilight 6:34 AM CET 5:54 PM CET
Nautical Twilight 6:03 AM CET 6:25 PM CET
Astronomical Twilight 5:32 AM CET 6:56 PM CET
Moon 12:09 AM CET (2/3) 10:52 AM CET (2/3)
Length of Visible Light 11h 19m
Length of Day
10h 24m
Waning Gibbous, 51% of the Moon is Illuminated
Feb 3
Waning Gibbous
Feb 3
Last Quarter
Feb 10
New
Feb 17
First Quarter
Feb 25
Full

Hourly Weather History & Observations

Time (CET) Temp. Windchill Dew Point Humidity Pressure Visibility Wind Dir Wind Speed Gust Speed Precip Events Conditions
12:55 AM 51.8 °F - 50.0 °F 94% 29.59 in 6.2 mi West 11.5 mph - N/A   Scattered Clouds
1:00 AM 52 °F - 51 °F 94% 29.62 in 9 mi West 11.5 mph - -   Scattered Clouds
1:55 AM 51.8 °F - 46.4 °F 82% 29.62 in 6.2 mi West 11.5 mph - N/A   Scattered Clouds
2:55 AM 51.8 °F - 42.8 °F 71% 29.62 in 6.2 mi West 4.6 mph - N/A   Scattered Clouds
3:55 AM 51.8 °F - 42.8 °F 71% 29.62 in 6.2 mi West 6.9 mph - N/A   Scattered Clouds
4:00 AM 51 °F - 43 °F 66% 29.65 in 9 mi West 6.9 mph - -   Partly Cloudy
4:55 AM 46.4 °F 41.9 °F 44.6 °F 93% 29.62 in 6.2 mi WSW 9.2 mph - N/A   Scattered Clouds
5:55 AM 46.4 °F 41.9 °F 42.8 °F 87% 29.65 in 6.2 mi West 9.2 mph - N/A   Partly Cloudy
6:55 AM 46.4 °F 41.9 °F 42.8 °F 87% 29.68 in 6.2 mi West 9.2 mph - N/A   Scattered Clouds
7:00 AM 46 °F - 43 °F 85% 29.70 in 9 mi West 9.2 mph - -   Scattered Clouds
7:55 AM 46.4 °F 41.9 °F 42.8 °F 87% 29.71 in 6.2 mi West 9.2 mph - N/A   Partly Cloudy
8:55 AM 51.8 °F - 42.8 °F 71% 29.74 in 6.2 mi West 12.7 mph - N/A   Partly Cloudy
9:55 AM 55.4 °F - 46.4 °F 72% 29.74 in 5.0 mi West 13.8 mph - N/A Rain Light Rain
10:00 AM 55 °F - 47 °F 66% 29.77 in 3 mi West 13.8 mph - - Rain Light Rain
11:55 AM 55.4 °F - 41.0 °F 58% 29.77 in 6.2 mi West 19.6 mph - N/A   Mostly Cloudy
12:55 PM 57.2 °F - 41.0 °F 55% 29.77 in 6.2 mi West 16.1 mph - N/A   Scattered Clouds
1:00 PM 56 °F - 41 °F 45% 29.80 in 6 mi West 16.1 mph - -   Partly Cloudy
1:55 PM 53.6 °F - 42.8 °F 67% 29.77 in 6.2 mi West 25.3 mph - N/A Rain Light Rain
2:15 PM 51.8 °F - 48.2 °F 88% 29.77 in 6.2 mi WSW 17.3 mph - N/A   Scattered Clouds
2:55 PM 57.2 °F - 46.4 °F 67% 29.77 in 6.2 mi West 21.9 mph - N/A   Scattered Clouds
3:55 PM 55.4 °F - 44.6 °F 67% 29.80 in 6.2 mi WSW 12.7 mph - N/A   Scattered Clouds
4:00 PM 56 °F - 45 °F 58% 29.81 in 6 mi WSW 12.7 mph - -   Partly Cloudy
4:55 PM 55.4 °F - 41.0 °F 58% 29.80 in 6.2 mi West 9.2 mph - N/A   Scattered Clouds
5:55 PM 50.0 °F - 42.8 °F 76% 29.83 in 6.2 mi WSW 10.4 mph - N/A   Scattered Clouds
6:55 PM 46.4 °F 41.9 °F 42.8 °F 87% 29.86 in 6.2 mi West 9.2 mph - N/A   Scattered Clouds
7:00 PM 47 °F - 43 °F 80% 29.88 in 6 mi West 9.2 mph - -   Partly Cloudy
7:55 PM 46.4 °F 42.9 °F 39.2 °F 76% 29.89 in 6.2 mi West 6.9 mph - N/A   Partly Cloudy
8:55 PM 44.6 °F 39.7 °F 39.2 °F 81% 29.92 in - WSW 9.2 mph - N/A   Clear
9:55 PM 44.6 °F 41.4 °F 41.0 °F 87% 29.92 in - NW 5.8 mph - N/A   Clear
10:00 PM 44 °F - 40 °F 82% 29.95 in 11 mi NW 5.8 mph - -  
10:55 PM 44.6 °F 40.2 °F 41.0 °F 87% 29.95 in - West 8.1 mph - N/A   Clear